Weather in Sablino

Russia / Orenburg Oblast     53°00′24″N   53°17′14″E
temp.,
°C
wind,
m/s
gust,
m/s
humid.,
%
clouds,
%
prec.,
mm/h
press.,
hPa
HPBL,
m
1 march, mon
mon123:00−16nnw469487 0.2 1011122
02:00−17nnw339457 0.0 101374
05:00−17nnw239478 0.0 101456
08:00−19nnw239542 0.0 101631
11:00−17nw349356 0.0 1018178
14:00−15nw349157 0.0 1019276
17:00−15nw369361 0.0 1021294
20:00−19wnw349868 0.0 102137
2 march, tue
tue223:00−22w2210059 0.0 102220
02:00−23wsw2210042 0.0 102120
05:00−23ssw2310055 0.0 102023
08:00−19s499999 0.1 1017223
11:00−14ssw61195100 0.1 1015351
14:00−11sw81394100 0.9 1011575
17:00−7sw81394100 1.6 1008720
20:00−4sw71494100 0.4 1005643
3 march, wed
wed323:00−3sw81496100 1.3 1003667
02:00−2sw61297100 1.1 1002585
05:00−2wsw4797100 1.6 1002325
08:00−3w3695100 0.1 1002269
11:00−5wnw3596100 0.1 1003160
14:00−4wnw24946 0.0 1003248
17:00−4wnw359445 0.1 1003347
20:00−7nw369791 0.1 1004164
4 march, thu
thu423:00−7w359695 0.3 100693
02:00−11wnw479593 0.1 1006138
05:00−13wnw469784 0.1 100886
08:00−15w469984 0.0 100988
11:00−12wsw489591 0.1 1010254
14:00−7sw6109498 0.1 1010457
17:00−6sw7129399 0.1 1009573
20:00−6sw81493100 0.2 1007807
5 march, fri
fri523:00−4sw91794100 0.4 1006858
02:00−2sw101796100 1.5 10031026
05:00−1sw101789100 1.7 10021047
08:00−2sw101895100 0.5 1002965
11:00−1wsw101596100 1.5 10041032
14:000wnw71097100 0.8 1007747
17:00−3wnw3784100 1.0 1010361
20:00−7wnw3388100 0.0 101245